| time (UTC) | temp F | wind direction | speed MPH | gust MPH | rain 1hr in | rain 24hr in | rain mn in | humidity % | barometer mb |
| 20260502204548 | 65 | 229 | 1.0 | 4.0 | 0.00 | 0.00 | 0.00 | 67 | 1010.9 |
| 20260502203043 | 63 | 229 | 1.0 | 7.0 | 0.00 | 0.00 | 0.00 | 69 | 1011.1 |
| 20260502201546 | 62 | 267 | 0.0 | 8.0 | 0.00 | 0.00 | 0.00 | 72 | 1011.2 |
| 20260502200053 | 62 | 282 | 1.0 | 8.0 | 0.00 | 0.00 | 0.00 | 72 | 1011.4 |
| 20260502194540 | 61 | 228 | 2.0 | 10.0 | 0.00 | 0.00 | 0.00 | 74 | 1011.7 |
| 20260502193041 | 61 | 223 | 2.0 | 7.0 | 0.00 | 0.00 | 0.00 | 74 | 1011.9 |
| 20260502191541 | 62 | 259 | 2.0 | 8.0 | 0.00 | 0.00 | 0.00 | 73 | 1012.0 |
| 20260502190044 | 61 | 219 | 1.0 | 8.0 | 0.00 | 0.00 | 0.00 | 76 | 1012.2 |
| 20260502184531 | 61 | 248 | 2.0 | 6.0 | 0.00 | 0.00 | 0.00 | 78 | 1012.2 |
| 20260502183028 | 59 | 245 | 2.0 | 8.0 | 0.00 | 0.00 | 0.00 | 80 | 1012.1 |
| 20260502181525 | 58 | 177 | 2.0 | 8.0 | 0.00 | 0.00 | 0.00 | 82 | 1012.3 |
| 20260502163010 | 54 | 105 | 0.0 | 0.0 | 0.00 | 0.00 | 0.00 | 93 | 1012.1 |
| 20260502161501 | 53 | 170 | 0.0 | 0.0 | 0.00 | 0.00 | 0.00 | 93 | 1012.1 |
| 20260502151607 | 51 | 113 | 0.0 | 0.0 | 0.00 | 0.00 | 0.00 | 93 | 1012.0 |
| 20260502123035 | 49 | 222 | 0.0 | 0.0 | 0.00 | 0.00 | 0.00 | 93 | 1011.1 |
| 20260502121536 | 49 | 222 | 0.0 | 0.0 | 0.00 | 0.00 | 0.00 | 92 | 1010.9 |
| 20260502114529 | 48 | 222 | 0.0 | 0.0 | 0.00 | 0.00 | 0.00 | 92 | 1011.0 |
| 20260502113035 | 48 | 222 | 0.0 | 0.0 | 0.00 | 0.00 | 0.00 | 92 | 1011.0 |
| 20260502111527 | 48 | 222 | 0.0 | 0.0 | 0.00 | 0.00 | 0.00 | 92 | 1010.9 |
| 20260502110034 | 48 | 222 | 0.0 | 0.0 | 0.00 | 0.00 | 0.00 | 92 | 1010.9 |
| 20260502104524 | 49 | 222 | 0.0 | 0.0 | 0.00 | 0.00 | 0.00 | 92 | 1011.0 |
| 20260502103024 | 49 | 222 | 0.0 | 0.0 | 0.00 | 0.00 | 0.00 | 92 | 1010.9 |
| 20260502101525 | 49 | 222 | 0.0 | 0.0 | 0.00 | 0.00 | 0.00 | 92 | 1010.6 |
| 20260502091515 | 50 | 312 | 0.0 | 0.0 | 0.00 | 0.00 | 0.00 | 91 | 1011.1 |
| 20260502071502 | 51 | 322 | 0.0 | 0.0 | 0.00 | 0.00 | 0.00 | 90 | 1011.7 |
| 20260502070005 | 51 | 264 | 0.0 | 0.0 | 0.00 | 0.00 | 0.00 | 89 | 1011.8 |
| 20260502064625 | 51 | 200 | 0.0 | 0.0 | 0.00 | 0.00 | 0.00 | 89 | 1011.8 |
| 20260502063101 | 52 | 210 | 0.0 | 0.0 | 0.00 | 0.00 | 0.00 | 89 | 1012.0 |
| 20260502061559 | 52 | 234 | 0.0 | 0.0 | 0.00 | 0.00 | 0.00 | 88 | 1012.1 |
| 20260502060059 | 52 | 233 | 0.0 | 0.0 | 0.00 | 0.00 | 0.00 | 87 | 1012.2 |
| 20260502054603 | 52 | 227 | 0.0 | 2.0 | 0.00 | 0.00 | 0.00 | 87 | 1012.1 |
| 20260502053057 | 53 | 277 | 0.0 | 0.0 | 0.00 | 0.00 | 0.00 | 86 | 1011.9 |
| 20260502051556 | 53 | 228 | 0.0 | 0.0 | 0.00 | 0.00 | 0.00 | 86 | 1011.9 |
| 20260502050100 | 53 | 286 | 0.0 | 0.0 | 0.00 | 0.00 | 0.00 | 85 | 1011.9 |
| 20260502044558 | 53 | 301 | 0.0 | 0.0 | 0.00 | 0.00 | 0.00 | 84 | 1011.8 |
| 20260502043055 | 54 | 230 | 0.0 | 0.0 | 0.00 | 0.00 | 0.00 | 82 | 1011.9 |
| 20260502041601 | 55 | 230 | 0.0 | 0.0 | 0.00 | 0.00 | 0.00 | 81 | 1011.7 |
| 20260502040056 | 55 | 230 | 0.0 | 0.0 | 0.00 | 0.00 | 0.00 | 80 | 1011.5 |
| 20260502034553 | 56 | 287 | 0.0 | 0.0 | 0.00 | 0.00 | 0.00 | 79 | 1011.1 |
| 20260502033101 | 57 | 245 | 0.0 | 0.0 | 0.00 | 0.00 | 0.00 | 77 | 1010.8 |
| 20260502031600 | 57 | 245 | 0.0 | 0.0 | 0.00 | 0.00 | 0.00 | 76 | 1010.6 |
| 20260502030055 | 58 | 318 | 0.0 | 0.0 | 0.00 | 0.00 | 0.00 | 73 | 1010.4 |
| 20260502024606 | 60 | 140 | 0.0 | 0.0 | 0.00 | 0.00 | 0.00 | 70 | 1010.1 |
| 20260502023107 | 61 | 197 | 0.0 | 0.0 | 0.00 | 0.00 | 0.00 | 68 | 1009.9 |
| 20260502021550 | 62 | 253 | 0.0 | 0.0 | 0.00 | 0.00 | 0.00 | 67 | 1009.7 |
| 20260502020054 | 63 | 205 | 0.0 | 0.0 | 0.00 | 0.00 | 0.00 | 66 | 1009.4 |
| 20260502014550 | 64 | 110 | 0.0 | 0.0 | 0.00 | 0.00 | 0.00 | 65 | 1009.4 |
| 20260502013051 | 65 | 101 | 0.0 | 1.0 | 0.00 | 0.00 | 0.00 | 63 | 1009.3 |
| 20260502011549 | 65 | 232 | 0.0 | 2.0 | 0.00 | 0.00 | 0.00 | 65 | 1009.3 |
| 20260502010048 | 65 | 318 | 0.0 | 6.0 | 0.00 | 0.00 | 0.00 | 65 | 1009.1 |
| 20260502004548 | 65 | 331 | 1.0 | 8.0 | 0.00 | 0.00 | 0.00 | 65 | 1009.0 |
| 20260502003049 | 65 | 223 | 0.0 | 7.0 | 0.00 | 0.00 | 0.00 | 65 | 1009.0 |
| 20260502001605 | 66 | 98 | 0.0 | 8.0 | 0.00 | 0.00 | 0.00 | 64 | 1009.0 |
| 20260501234545 | 68 | 198 | 1.0 | 8.0 | 0.00 | 0.00 | 0.00 | 62 | 1008.9 |
| 20260501233045 | 68 | 237 | 2.0 | 9.0 | 0.00 | 0.00 | 0.00 | 60 | 1008.9 |
| 20260501231544 | 70 | 205 | 2.0 | 6.0 | 0.00 | 0.00 | 0.00 | 60 | 1009.0 |
| 20260501230044 | 70 | 259 | 1.0 | 10.0 | 0.00 | 0.00 | 0.00 | 59 | 1009.0 |
| 20260501224601 | 71 | 302 | 1.0 | 10.0 | 0.00 | 0.00 | 0.00 | 59 | 1009.2 |
| 20260501223040 | 72 | 310 | 1.0 | 8.0 | 0.00 | 0.00 | 0.00 | 58 | 1009.5 |
| 20260501221543 | 72 | 278 | 1.0 | 8.0 | 0.00 | 0.00 | 0.00 | 57 | 1009.7 |
| 20260501220041 | 73 | 215 | 2.0 | 8.0 | 0.00 | 0.00 | 0.00 | 57 | 1009.9 |
| 20260501214536 | 75 | 289 | 1.0 | 8.0 | 0.00 | 0.00 | 0.00 | 53 | 1010.0 |
| 20260501213037 | 77 | 215 | 0.0 | 6.0 | 0.00 | 0.00 | 0.00 | 51 | 1010.2 |
| 20260501211532 | 78 | 267 | 0.0 | 8.0 | 0.00 | 0.00 | 0.00 | 50 | 1010.3 |
| 20260501210030 | 79 | 250 | 0.0 | 6.0 | 0.00 | 0.00 | 0.00 | 49 | 1010.4 |